User: anonymous   Login
Location: Columbia
(38.9520°N, 92.3340°W)
Time: 14:15:44
(UTC-05:00)
Language:

Meteor 1-4 Rocket - Orbit

View from above orbital plane
View from above orbital plane
View from above satellite
View from above satellite

Ground track
Ground track

The orbit data is extracted from the following two-line orbital elements,

1 04394U 70037B   15143.83144846  .00002852  00000-0  11171-3 0  9990
2 04394 081.2432 179.7028 0044764 175.8160 184.3458 15.24490060449527
Epoch (UTC): 23 May 2015 19:57:17
Eccentricity: 0.0044764
inclination: 81.2432°
perigee height: 461 km
apogee height: 523 km
right ascension of ascending node: 179.7028°
argument of perigee: 175.8160°
revolutions per day: 15.24490060
mean anomaly at epoch: 184.3458°
orbit number at epoch: 44952

The dashed part of the orbit path shows where the satellite is in the earth's shadow,  

DLR